This is the latest recevied weather packets stored in our database for station/object W0PE-1. If no packets are shown the sender has not sent any weather packets the latest 10 day(s).
| Time | Temp. | Humidity | Pressure | Rain* | Wind** | Luminosity | Snow |
|---|---|---|---|---|---|---|---|
| 1778044522 | 15° C | 74% | 1016.5 hPa | 0 mm | - | - | - |
| 1778043620 | 15° C | 73% | 1016.3 hPa | 0 mm | - | - | - |
| 1778042720 | 15.56° C | 71% | 1016.1 hPa | 0 mm | - | - | - |
| 1778041817 | 15.56° C | 70% | 1015.8 hPa | 0 mm | - | - | - |
| 1778040916 | 15.56° C | 69% | 1015.7 hPa | 0 mm | - | - | - |
| 1778040023 | 16.11° C | 68% | 1015.5 hPa | 0 mm | - | - | - |
| 1778039111 | 16.11° C | 67% | 1015.1 hPa | 0 mm | - | - | - |
| 1778038210 | 16.11° C | 66% | 1014.9 hPa | 0 mm | - | - | - |
| 1778037308 | 16.67° C | 65% | 1014.8 hPa | 0 mm | - | - | - |
| 1778036407 | 17.22° C | 62% | 1014.6 hPa | 0 mm | - | - | - |
| 1778035506 | 17.22° C | 60% | 1014.3 hPa | 0 mm | - | - | - |
| 1778034605 | 17.78° C | 58% | 1013.9 hPa | 0 mm | - | - | - |
| 1778033707 | 17.78° C | 56% | 1013.9 hPa | 0 mm | - | - | - |
| 1778032804 | 18.33° C | 55% | 1013.7 hPa | 0 mm | - | - | - |
| 1778031904 | 18.89° C | 54% | 1013.6 hPa | 0 mm | - | - | - |
| 1778031003 | 18.89° C | 53% | 1013.5 hPa | 0 mm | - | - | - |
| 1778030101 | 18.89° C | 52% | 1013.4 hPa | 0 mm | - | - | - |
| 1778029278 | 18.89° C | 52% | 1013.3 hPa | 0 mm | - | - | - |
| 1778028359 | 18.89° C | 50% | 1013.3 hPa | 0 mm | - | - | - |
| 1778027459 | 18.89° C | 51% | 1013.3 hPa | 0 mm | - | - | - |
| 1778026559 | 18.89° C | 51% | 1013.3 hPa | 0 mm | - | - | - |
| 1778025658 | 18.89° C | 52% | 1013.3 hPa | 0 mm | - | - | - |
| 1778024769 | 18.89° C | 51% | 1013.3 hPa | 0 mm | - | - | - |
| 1778023857 | 18.33° C | 51% | 1013.4 hPa | 0 mm | - | - | - |
| 1778022957 | 18.89° C | 51% | 1013.5 hPa | 0 mm | - | - | - |
* Rain latest hour (hover to see other rain measurements)
** Current wind speed in m/s (hover to see current wind gust speed)